Laurent Verva

Laurent Verva

Statistiques 2026

  • Courses courues : 42
  • Nb de victoires : -
  • Nb de places : 1
  • Écart gagnant : 143
  • Réussite à la gagne : -
  • Réussite à la place : 2%
Musique : 0a 8a 4a 6a 6a 0a 5a 5a Da 2a 9a 6a 5a Da 6a 0a 7a 4a
DateRangCatégorieAlloc.Dist.HippodromeChevalRed. KmSpé.
05/08/18 D Trot 12 000€ 2 600m Berck Sur Mer Erikles du Breucq Attelé
05/08/18 3 Trot 11 000€ 2 600m Berck Sur Mer Flashback Syga Attelé
05/08/18 D Trot 15 000€ 2 600m Berck Sur Mer Come Back Attelé
05/08/18 8 Trot 15 000€ 2 625m Berck Sur Mer Cubana Attelé
06/08/18 D Trot 11 000€ 2 550m Dieppe Filea de la Besvre Attelé
06/08/18 4 Trot 11 000€ 2 550m Dieppe Florette des Neuzy 1'24"7 Attelé
06/08/18 4 Trot 13 000€ 2 575m Dieppe Es Tu la Des Fanes 1'21"9 Attelé
06/08/18 0 Trot 32 000€ 2 550m Dieppe Charly d'Ommeel Attelé
06/08/18 5 Trot 32 000€ 2 550m Dieppe Aristo de Chanjac 1'19"7 Attelé
07/08/18 5 Trot 21 000€ 2 050m Cabourg Elliot d'Alci 1'15"3 Attelé lire

Attentiste en retrait, a donné un bon coup de reins dans la phase finale.

07/08/18 5 Trot 21 000€ 2 050m Cabourg Flamme Mencourt 1'16"6 Attelé lire

Attentiste en queue de peloton, a donné un bon coup de reins pour finir.

08/08/18 7 Trot 25 000€ 2 900m Dozule Cyrus d'Alci Attelé
10/08/18 6 Trot 21 000€ 2 700m La Capelle Ethano de Bouteau 1'16"2 Attelé
10/08/18 D Trot 21 000€ 2 700m La Capelle Elisee du Pont Attelé
10/08/18 0 Trot 22 000€ 2 750m La Capelle Charlotte Maza Attelé
10/08/18 2 Trot 26 000€ 2 700m La Capelle As de Godisson 1'13"4 Attelé
12/08/18 5 Trot 11 000€ 2 100m Le Touquet Filae des Salines Attelé
12/08/18 3 Trot 25 000€ 2 625m Le Touquet Capital Majyc Attelé
12/08/18 0 Trot 13 000€ 2 625m Le Touquet Etoile Lynole Attelé
12/08/18 0 Trot 13 000€ 2 600m Le Touquet Elite d'Alci Attelé
15/08/18 D Trot 20 000€ 2 700m La Capelle Flamme Mencourt Attelé
15/08/18 4 Trot 20 000€ 2 700m La Capelle Eole Chatho 1'15"2 Attelé
15/08/18 2 Trot 20 000€ 2 700m La Capelle Es Tu la Des Fanes 1'17"1 Attelé
15/08/18 2 Trot 30 000€ 2 700m La Capelle Aristo 1'14"3 Attelé
19/08/18 2 Trot 13 000€ 2 900m Arras Falco d'Alci TNC Attelé
19/08/18 1 Trot 16 000€ 2 925m Arras Destrier d'Isques Attelé
19/08/18 4 Trot 21 000€ 2 925m Arras Cybele de Godrel Attelé
19/08/18 3 Trot 14 000€ 2 925m Arras Elixir Neslois Attelé
21/08/18 6 Trot 27 000€ 2 050m Cabourg Diego du Houlet 1'13"1 Attelé
21/08/18 0 Trot 24 000€ 2 050m Cabourg Elliot d'Alci Attelé
25/08/18 5 Trot 13 000€ 2 400m Amiens Fire Bird 1'18"7 Attelé
25/08/18 7 Trot 17 000€ 2 925m Amiens Daisy de la Folie 1'16"9 Attelé
25/08/18 0 Trot 15 000€ 2 400m Amiens Elixir Neslois Attelé
26/08/18 4 Trot 10 000€ 2 600m Le Touquet Filou d'Avesnes Attelé
26/08/18 D Trot 10 000€ 2 600m Le Touquet Farca Sly Attelé
26/08/18 4 Trot 13 000€ 2 625m Le Touquet Ensoleillee Volo Attelé
26/08/18 9 Trot 25 000€ 2 625m Le Touquet Altesse d'Ardennes Attelé
26/08/18 5 Trot 13 000€ 2 625m Le Touquet Ercule de Navary Attelé
28/08/18 D Trot 19 000€ 2 700m La Capelle Fringant Pacha Attelé
28/08/18 4 Trot 20 000€ 2 700m La Capelle Ethano de Bouteau 1'16"3 Attelé
28/08/18 7 Trot 23 000€ 2 700m La Capelle Calba du Pont 1'15"3 Attelé
28/08/18 6 Trot 23 000€ 2 700m La Capelle Cirio 1'15"3 Attelé
28/08/18 D Trot 30 000€ 2 775m La Capelle Aristo Attelé
01/09/18 3 Trot 23 000€ 2 800m Vichy Altesse d'Ardennes 1'13"8 Attelé
01/09/18 1 Trot 21 000€ 2 800m Vichy Eros In Love 1'14"6 Attelé
02/09/18 6 Trot 13 000€ 2 625m Saint Omer Fidji Song 1'20"3 Attelé
02/09/18 0 Trot 14 000€ 2 650m Saint Omer Eden Pierji Attelé
02/09/18 4 Trot 13 000€ 2 625m Saint Omer Flashback Syga 1'21"2 Attelé
02/09/18 2 Trot 25 000€ 2 650m Saint Omer Au Temps Dubonheur 1'15"9 Attelé
02/09/18 D Trot 14 000€ 2 625m Saint Omer Epona des Neuzy Attelé